OBJECT E

Satellite information

Favourite Embed

Satellite Type and Status

UNKNOWNIN ORBIT

Key statistics

Satellite OBJECT E at a glance.

Uptime

2412

Days in orbit

Revolutions

≈ 12.8

Per day

Orbit

LEO

Low Earth Orbit

Inclination

82.5

Latest

Satellite identification and parameters

Extended collection of information and parameters for OBJECT E.

Object identification

Identified? True

Debris? False

Object name: OBJECT E

International designator: 2018-097E

Object number (NORAD): 43755

Object ID (CCSDS): 43755

Country: COMMONWEALTH OF INDEPENDENT STATES (CIS)

Current information (Y/N): Y

RCS size: SMALL

Orbital parameters

Period: 112.421 minutes

Inclination: 82.5161 deg

SMA: 7716.003 km

Apoapsis: 1504.851 km

Periapsis: 1170.886 km

RAAN: 326.0433 deg

Eccentricy: 0.0216411

Argument of periapsis: 23.1373 deg

Mean anomaly: 337.9296 deg

Mean motion: 12.80896813 rev/day

Mean motion (dot): 0.00000011 rev/day2

B* drag term: -0.0000010589 1/REarth

Two-line elements (TLE)

Creation date: July 8, 2025, 2:27 a.m.

Reference frame: TEME

Reference center: EARTH

Epoch: July 7, 2025, 8:04 p.m. UTC

TLE line 0: 0 OBJECT E

TLE line 1: 1 43755U 18097E 25188.83633715 .00000011 00000-0 -10589-5 0 9990

TLE line 2: 2 43755 82.5161 326.0433 0216411 23.1373 337.9296 12.80896813308527

Live tracking on map

Real-time ground track for satellite OBJECT E.

In-orbit conjunctions

There are no conjunctions computed for OBJECT E, at the moment. Check back to stay up to date, as we update our databases every day.

Go to all conjunctions

Associated space launch

Rodnik is a series of military communications satellites.

OBJECT E was lifted into orbit during the mission ‘Rokot / Briz-KM | 3 x Rodnik (Kosmos 2530, 2531, 2532)’, on board a Rokot/Briz-KM space rocket.

The launch took place on Nov. 30, 2018, 2:27 a.m. from 133/3 (133L).

For more information about the launch, click the button.

Launch to space Rokot / Briz-KM | 3 x Rodnik (Kosmos 2530, 2531, 2532)
Rokot / Briz-KM | 3 x Rodnik (Kosmos 2530, 2531, 2532)

Agency: N/A

Status: Launch Successful

Launch date: Nov. 30, 2018, 2:27 a.m. UTC

Rocket: Rokot/Briz-KM

Launch pad: 133/3 (133L)

Location: Plesetsk Cosmodrome, Russian Federation

...

Latest news about this satellite

There are no fresh news available about this satellite. Check back as we update our databases every day.


Newsletter sign-up

Weekly statistics, charts and insights to help you stay on top of the space industry.